Regional Weather Roundup
Issued by NWS

Home | Current Version | Previous Version | Text Only | Print | Product List | Glossary On
Versions: 1 2 3 4 5 6 7 8 9 10 11 12 13 14 15 16 17 18 19 20 21 22 23 24 25 26 27 28 29 30 31 32 33 34 35 36 37 38 39 40 41 42 43 44 45 46 47 48 49 50
000
ASUS43 KFSD 182010
RWRSD

WEATHER ROUNDUP FOR SOUTH DAKOTA
NATIONAL WEATHER SERVICE SIOUX FALLS SD
300 PM CDT SAT APR 18 2015

NOTE: "FAIR" INDICATES FEW OR NO CLOUDS BELOW 12,000 FEET WITH NO
SIGNIFICANT WEATHER AND/OR OBSTRUCTIONS TO VISIBILITY.


SDZ001>005-009-010-012>017-182100-
NORTHWEST AND NORTH CENTRAL SOUTH DAKOTA

CITY           SKY/WX    TMP DP  RH WIND       PRES   REMARKS
BUFFALO          N/A     60  35  39 SE6       29.88S
FAITH            N/A     51  44  77 N9        29.93F
MOBRIDGE       CLOUDY    63  25  23 S6        29.92S
$$

SDZ012>016-024>037-041>051-057-063-072>074-182100-
SOUTHWEST AND SOUTH CENTRAL SOUTH DAKOTA

CITY           SKY/WX    TMP DP  RH WIND       PRES   REMARKS
RAPID CTY ARPT LGT RAIN  47  44  90 N8        29.93F FOG
PIERRE         LGT RAIN  52  45  77 N9        29.88F
CUSTER         CLOUDY    41  38  89 N3        29.93S FOG
ELLSWORTH AFB  LGT RAIN  48  45  87 N8        29.93
PHILIP         CLOUDY    53  46  77 W7        29.90S
PINE RIDGE     CLOUDY    52  46  80 NW7       29.89F
SPEARFISH      LGT RAIN  48  39  71 E9        29.96S
WINNER         CLOUDY    59  52  77 E10       29.87F
$$

SDZ004>011-016>023-039-040-182100-
NORTHEAST SOUTH DAKOTA

CITY           SKY/WX    TMP DP  RH WIND       PRES   REMARKS
ABERDEEN       CLOUDY    72  24  16 SE12      29.89F
WATERTOWN      CLOUDY    68  28  22 SE8       29.91F
BROOKINGS      CLOUDY    66  41  39 SE17G25   29.91F
SISSETON         N/A     74  22  14 S18G26    29.90F
$$

SDZ017-020-022-023-036>040-048>070-182100-
SOUTHEAST SOUTH DAKOTA

CITY           SKY/WX    TMP DP  RH WIND       PRES   REMARKS
SIOUX FALLS    LGT RAIN  58  53  84 E6        29.90F
HURON          LGT RAIN  61  45  55 SE13      29.89F
CHAMBERLAIN    CLOUDY    55  51  86 SE9       29.88S
MITCHELL       LGT RAIN  54  52  93 E13       29.88F FOG
YANKTON        CLOUDY    57  54  88 SE5       29.88S
$$

ABBREVIATIONS USED IN REMARKS
   TC - TEMPERATURE IN CELSIUS
  WCI - WIND CHILL INDEX
   HX - HEAT INDEX
  VSB - VISIBILITY



USA.gov is the U.S. government's official web portal to all federal, state and local government web resources and services.